sat.trackr.live / text

‹ back to catalog

STARLINK-36822

NORAD 67909 · 2026-036F

PAYLOAD ACTIVE UNKNOWN

§ Identity

Operator
Country
US
Launch date
2026-02-22
Launch site
AFETR
Launch vehicle
Mass (kg)
RCS (m²)

Purposes: comms

External: N2YO · Heavens-Above · Gunter

§ Orbital elements

Epoch: 2026-09-19T06:09:00.273024Z

Period
94.27 min
Inclination
42.9997°
Eccentricity
0.0001417
Mean motion
15.27589710 rev/d
Perigee alt
482.0 km
Apogee alt
484.0 km
Semi-major
6,861.2 km
B*
3.6091e-4
RAAN
232.2761°
Arg perigee
266.9777°
Mean anomaly
93.0912°
Rev number
3,332

§ Raw data

STARLINK-368221 67909U 26036F   26262.25625316  .00009685  00000+0  36091-3 0  99952 67909  42.9997 232.2761 0001417 266.9777  93.0912 15.27589710 33323

JSON: /api/v1/satellites/67909 · /tle

For live sub-satellite position, see the globe view (requires WebGL).

§ Visibility from observer

Set your observer location to see the next 7 days of passes ≥ 10°. The values pass through the URL so the page stays shareable.

No JS? Fill the form by hand. The geolocation button needs JavaScript.